| time (UTC) | temp F | wind direction | speed MPH | gust MPH | rain 1hr in | rain 24hr in | rain mn in | humidity % | barometer mb |
| 20260503050926 | 56 | 74 | 2.0 | 2.0 | 0.00 | 0.00 | 0.00 | 89 | 1022.4 |
| 20260503050422 | 56 | 72 | 2.0 | 2.0 | 0.00 | 0.00 | 0.00 | 89 | 1022.4 |
| 20260503045920 | 56 | 80 | 2.0 | 2.0 | 0.00 | 0.00 | 0.00 | 88 | 1022.5 |
| 20260503045417 | 56 | 83 | 1.0 | 3.0 | 0.00 | 0.00 | 0.00 | 88 | 1022.3 |
| 20260503044914 | 56 | 82 | 2.0 | 3.0 | 0.00 | 0.00 | 0.00 | 87 | 1022.3 |
| 20260503044411 | 57 | 83 | 2.0 | 3.0 | 0.00 | 0.00 | 0.00 | 87 | 1022.4 |
| 20260503043908 | 57 | 91 | 2.0 | 2.0 | 0.00 | 0.00 | 0.00 | 87 | 1022.4 |
| 20260503043404 | 57 | 80 | 2.0 | 3.0 | 0.00 | 0.00 | 0.00 | 87 | 1022.3 |
| 20260503042901 | 57 | 81 | 2.0 | 2.0 | 0.00 | 0.00 | 0.00 | 86 | 1022.4 |
| 20260503042357 | 57 | 78 | 2.0 | 2.0 | 0.00 | 0.00 | 0.00 | 85 | 1022.4 |
| 20260503041853 | 58 | 81 | 2.0 | 3.0 | 0.00 | 0.00 | 0.00 | 86 | 1022.3 |
| 20260503041351 | 57 | 81 | 2.0 | 2.0 | 0.00 | 0.00 | 0.00 | 85 | 1022.2 |
| 20260503040848 | 57 | 85 | 2.0 | 2.0 | 0.00 | 0.00 | 0.00 | 85 | 1022.1 |
| 20260503040346 | 57 | 73 | 2.0 | 2.0 | 0.00 | 0.00 | 0.00 | 84 | 1022.2 |
| 20260503035842 | 58 | 82 | 2.0 | 2.0 | 0.00 | 0.00 | 0.00 | 83 | 1022.1 |
| 20260503035339 | 58 | 74 | 2.0 | 2.0 | 0.00 | 0.00 | 0.00 | 84 | 1022.1 |
| 20260503034837 | 58 | 82 | 2.0 | 2.0 | 0.00 | 0.00 | 0.00 | 83 | 1022.3 |
| 20260503034334 | 59 | 75 | 2.0 | 2.0 | 0.00 | 0.00 | 0.00 | 83 | 1022.0 |
| 20260503033831 | 59 | 78 | 2.0 | 2.0 | 0.00 | 0.00 | 0.00 | 82 | 1021.9 |
| 20260503033329 | 59 | 62 | 2.0 | 2.0 | 0.00 | 0.00 | 0.00 | 81 | 1021.9 |
| 20260503032827 | 59 | 78 | 2.0 | 3.0 | 0.00 | 0.00 | 0.00 | 81 | 1021.9 |
| 20260503032325 | 59 | 80 | 2.0 | 2.0 | 0.00 | 0.00 | 0.00 | 80 | 1021.8 |
| 20260503031822 | 59 | 82 | 2.0 | 2.0 | 0.00 | 0.00 | 0.00 | 78 | 1022.0 |
| 20260503031320 | 60 | 79 | 2.0 | 2.0 | 0.00 | 0.00 | 0.00 | 77 | 1021.8 |
| 20260503030816 | 60 | 72 | 2.0 | 2.0 | 0.00 | 0.00 | 0.00 | 76 | 1021.7 |
| 20260503030313 | 60 | 76 | 2.0 | 2.0 | 0.00 | 0.00 | 0.00 | 75 | 1021.7 |
| 20260503025809 | 61 | 71 | 2.0 | 2.0 | 0.00 | 0.00 | 0.00 | 75 | 1021.8 |
| 20260503025307 | 61 | 92 | 2.0 | 3.0 | 0.00 | 0.00 | 0.00 | 74 | 1021.8 |
| 20260503024804 | 61 | 67 | 2.0 | 2.0 | 0.00 | 0.00 | 0.00 | 73 | 1021.7 |
| 20260503024300 | 62 | 70 | 2.0 | 2.0 | 0.00 | 0.00 | 0.00 | 71 | 1021.6 |
| 20260503023757 | 62 | 66 | 2.0 | 2.0 | 0.00 | 0.00 | 0.00 | 70 | 1021.5 |
| 20260503023255 | 63 | 88 | 2.0 | 2.0 | 0.00 | 0.00 | 0.00 | 71 | 1021.2 |
| 20260503022751 | 63 | 85 | 2.0 | 2.0 | 0.00 | 0.00 | 0.00 | 69 | 1021.3 |
| 20260503022251 | 63 | 83 | 2.0 | 2.0 | 0.00 | 0.00 | 0.00 | 65 | 1021.2 |
| 20260503021748 | 64 | 89 | 2.0 | 2.0 | 0.00 | 0.00 | 0.00 | 62 | 1021.0 |
| 20260503021244 | 64 | 92 | 2.0 | 2.0 | 0.00 | 0.00 | 0.00 | 62 | 1021.1 |
| 20260503020742 | 64 | 89 | 2.0 | 2.0 | 0.00 | 0.00 | 0.00 | 61 | 1021.1 |
| 20260503020239 | 65 | 86 | 2.0 | 2.0 | 0.00 | 0.00 | 0.00 | 61 | 1021.1 |
| 20260503015735 | 65 | 94 | 2.0 | 2.0 | 0.00 | 0.00 | 0.00 | 60 | 1020.9 |
| 20260503015232 | 65 | 91 | 2.0 | 2.0 | 0.00 | 0.00 | 0.00 | 59 | 1021.0 |
| 20260503014728 | 66 | 92 | 2.0 | 2.0 | 0.00 | 0.00 | 0.00 | 59 | 1020.9 |
| 20260503014227 | 66 | 88 | 2.0 | 2.0 | 0.00 | 0.00 | 0.00 | 58 | 1021.0 |
| 20260503013723 | 67 | 88 | 2.0 | 2.0 | 0.00 | 0.00 | 0.00 | 57 | 1021.0 |
| 20260503013221 | 67 | 82 | 1.0 | 2.0 | 0.00 | 0.00 | 0.00 | 56 | 1021.0 |
| 20260503012718 | 67 | 91 | 2.0 | 2.0 | 0.00 | 0.00 | 0.00 | 55 | 1020.9 |
| 20260503012215 | 68 | 87 | 2.0 | 2.0 | 0.00 | 0.00 | 0.00 | 55 | 1020.7 |
| 20260503011711 | 68 | 85 | 1.0 | 2.0 | 0.00 | 0.00 | 0.00 | 54 | 1020.6 |
| 20260503011209 | 69 | 94 | 0.0 | 2.0 | 0.00 | 0.00 | 0.00 | 55 | 1020.6 |
| 20260503010704 | 69 | 98 | 2.0 | 2.0 | 0.00 | 0.00 | 0.00 | 52 | 1020.6 |
| 20260503010202 | 69 | 86 | 1.0 | 2.0 | 0.00 | 0.00 | 0.00 | 51 | 1020.7 |
| 20260503005659 | 70 | 89 | 1.0 | 2.0 | 0.00 | 0.00 | 0.00 | 52 | 1020.6 |
| 20260503005156 | 70 | 91 | 2.0 | 2.0 | 0.00 | 0.00 | 0.00 | 52 | 1020.7 |
| 20260503004652 | 70 | 88 | 2.0 | 2.0 | 0.00 | 0.00 | 0.00 | 51 | 1020.6 |
| 20260503004151 | 71 | 37 | 0.0 | 2.0 | 0.00 | 0.00 | 0.00 | 46 | 1020.5 |
| 20260503003648 | 71 | 77 | 2.0 | 3.0 | 0.00 | 0.00 | 0.00 | 46 | 1020.5 |
| 20260503003145 | 71 | 87 | 1.0 | 2.0 | 0.00 | 0.00 | 0.00 | 46 | 1020.5 |
| 20260503002641 | 71 | 97 | 0.0 | 2.0 | 0.00 | 0.00 | 0.00 | 43 | 1020.5 |
| 20260503002138 | 72 | 89 | 1.0 | 2.0 | 0.00 | 0.00 | 0.00 | 48 | 1020.4 |
| 20260503001634 | 72 | 100 | 1.0 | 2.0 | 0.00 | 0.00 | 0.00 | 47 | 1020.4 |
| 20260503001131 | 72 | 24 | 0.0 | 2.0 | 0.00 | 0.00 | 0.00 | 45 | 1020.5 |
| 20260503000629 | 73 | 68 | 2.0 | 2.0 | 0.00 | 0.00 | 0.00 | 46 | 1020.2 |
| 20260503000126 | 73 | 68 | 0.0 | 2.0 | 0.00 | 0.00 | 0.00 | 47 | 1020.4 |
| 20260502235622 | 73 | 72 | 0.0 | 2.0 | 0.00 | 0.00 | 0.00 | 42 | 1020.4 |
| 20260502235121 | 73 | 77 | 1.0 | 2.0 | 0.00 | 0.00 | 0.00 | 42 | 1020.4 |
| 20260502234616 | 73 | 52 | 1.0 | 2.0 | 0.00 | 0.00 | 0.00 | 41 | 1020.4 |
| 20260502234114 | 73 | 66 | 0.0 | 2.0 | 0.00 | 0.00 | 0.00 | 42 | 1020.4 |
| 20260502233609 | 73 | 89 | 0.0 | 2.0 | 0.00 | 0.00 | 0.00 | 43 | 1020.4 |
| 20260502233107 | 73 | 72 | 1.0 | 2.0 | 0.00 | 0.00 | 0.00 | 41 | 1020.4 |
| 20260502232602 | 73 | 50 | 0.0 | 2.0 | 0.00 | 0.00 | 0.00 | 44 | 1020.3 |
| 20260502232100 | 73 | 89 | 0.0 | 3.0 | 0.00 | 0.00 | 0.00 | 42 | 1020.3 |
| 20260502231557 | 74 | 110 | 0.0 | 2.0 | 0.00 | 0.00 | 0.00 | 44 | 1020.1 |
| 20260502231055 | 74 | 149 | 0.0 | 2.0 | 0.00 | 0.00 | 0.00 | 41 | 1020.2 |
| 20260502230553 | 74 | 59 | 2.0 | 2.0 | 0.00 | 0.00 | 0.00 | 43 | 1020.2 |
| 20260502230051 | 74 | 103 | 1.0 | 2.0 | 0.00 | 0.00 | 0.00 | 40 | 1020.1 |
| 20260502225546 | 74 | 44 | 1.0 | 2.0 | 0.00 | 0.00 | 0.00 | 42 | 1020.3 |
| 20260502225043 | 74 | 41 | 1.0 | 3.0 | 0.00 | 0.00 | 0.00 | 41 | 1020.3 |
| 20260502224539 | 74 | 34 | 3.0 | 3.0 | 0.00 | 0.00 | 0.00 | 41 | 1020.3 |
| 20260502224037 | 74 | 112 | 1.0 | 2.0 | 0.00 | 0.00 | 0.00 | 42 | 1020.3 |
| 20260502223534 | 74 | 56 | 1.0 | 2.0 | 0.00 | 0.00 | 0.00 | 42 | 1020.3 |
| 20260502223033 | 75 | 158 | 0.0 | 2.0 | 0.00 | 0.00 | 0.00 | 43 | 1020.2 |
| 20260502222529 | 75 | 67 | 0.0 | 2.0 | 0.00 | 0.00 | 0.00 | 43 | 1020.3 |
| 20260502222026 | 75 | 103 | 1.0 | 2.0 | 0.00 | 0.00 | 0.00 | 44 | 1020.5 |
| 20260502221521 | 75 | 151 | 0.0 | 3.0 | 0.00 | 0.00 | 0.00 | 41 | 1020.4 |
| 20260502221019 | 74 | 131 | 0.0 | 2.0 | 0.00 | 0.00 | 0.00 | 43 | 1020.4 |
| 20260502220514 | 74 | 244 | 0.0 | 3.0 | 0.00 | 0.00 | 0.00 | 42 | 1020.4 |
| 20260502220011 | 75 | 50 | 0.0 | 2.0 | 0.00 | 0.00 | 0.00 | 42 | 1020.5 |
| 20260502215509 | 75 | 43 | 1.0 | 2.0 | 0.00 | 0.00 | 0.00 | 41 | 1020.3 |
| 20260502215005 | 75 | 103 | 0.0 | 2.0 | 0.00 | 0.00 | 0.00 | 40 | 1020.4 |
| 20260502214502 | 74 | 38 | 1.0 | 2.0 | 0.00 | 0.00 | 0.00 | 42 | 1020.5 |
| 20260502214000 | 74 | 45 | 0.0 | 2.0 | 0.00 | 0.00 | 0.00 | 41 | 1020.6 |
| 20260502213456 | 76 | 19 | 1.0 | 2.0 | 0.00 | 0.00 | 0.00 | 43 | 1020.7 |
| 20260502212954 | 75 | 142 | 0.0 | 3.0 | 0.00 | 0.00 | 0.00 | 41 | 1020.6 |
| 20260502212453 | 75 | 164 | 1.0 | 2.0 | 0.00 | 0.00 | 0.00 | 40 | 1020.7 |
| 20260502211950 | 75 | 39 | 2.0 | 2.0 | 0.00 | 0.00 | 0.00 | 42 | 1020.8 |
| 20260502211445 | 76 | 135 | 1.0 | 2.0 | 0.00 | 0.00 | 0.00 | 41 | 1020.7 |
| 20260502210943 | 75 | 103 | 0.0 | 2.0 | 0.00 | 0.00 | 0.00 | 39 | 1020.9 |
| 20260502210440 | 76 | 56 | 0.0 | 2.0 | 0.00 | 0.00 | 0.00 | 37 | 1020.9 |
| 20260502205937 | 77 | 32 | 0.0 | 2.0 | 0.00 | 0.00 | 0.00 | 37 | 1021.0 |
| 20260502205433 | 79 | 121 | 2.0 | 2.0 | 0.00 | 0.00 | 0.00 | 35 | 1021.0 |
| 20260502204931 | 79 | 49 | 0.0 | 2.0 | 0.00 | 0.00 | 0.00 | 37 | 1021.2 |
| 20260502204427 | 80 | 150 | 2.0 | 2.0 | 0.00 | 0.00 | 0.00 | 34 | 1021.3 |
| 20260502203925 | 79 | 60 | 1.0 | 2.0 | 0.00 | 0.00 | 0.00 | 34 | 1021.3 |
| 20260502203423 | 80 | 295 | 0.0 | 3.0 | 0.00 | 0.00 | 0.00 | 37 | 1021.4 |
| 20260502202918 | 81 | 58 | 0.0 | 2.0 | 0.00 | 0.00 | 0.00 | 36 | 1021.4 |
| 20260502202415 | 81 | 255 | 1.0 | 2.0 | 0.00 | 0.00 | 0.00 | 36 | 1021.4 |
| 20260502201914 | 80 | 93 | 0.0 | 2.0 | 0.00 | 0.00 | 0.00 | 37 | 1021.6 |
| 20260502201409 | 80 | 275 | 2.0 | 3.0 | 0.00 | 0.00 | 0.00 | 36 | 1021.6 |
| 20260502200906 | 82 | 43 | 1.0 | 2.0 | 0.00 | 0.00 | 0.00 | 36 | 1021.6 |
| 20260502200401 | 81 | 86 | 0.0 | 2.0 | 0.00 | 0.00 | 0.00 | 39 | 1021.6 |
| 20260502195900 | 81 | 89 | 0.0 | 2.0 | 0.00 | 0.00 | 0.00 | 38 | 1021.6 |
| 20260502195356 | 80 | 32 | 0.0 | 2.0 | 0.00 | 0.00 | 0.00 | 37 | 1021.7 |
| 20260502194853 | 79 | 5 | 0.0 | 2.0 | 0.00 | 0.00 | 0.00 | 38 | 1021.7 |
| 20260502194350 | 78 | 248 | 3.0 | 3.0 | 0.00 | 0.00 | 0.00 | 35 | 1021.7 |
| 20260502193845 | 77 | 66 | 1.0 | 4.0 | 0.00 | 0.00 | 0.00 | 41 | 1021.7 |
| 20260502193343 | 77 | 44 | 1.0 | 3.0 | 0.00 | 0.00 | 0.00 | 40 | 1021.6 |
| 20260502192838 | 77 | 232 | 1.0 | 2.0 | 0.00 | 0.00 | 0.00 | 38 | 1021.8 |
| 20260502192336 | 79 | 116 | 0.0 | 3.0 | 0.00 | 0.00 | 0.00 | 38 | 1021.9 |
| 20260502191833 | 79 | 166 | 2.0 | 3.0 | 0.00 | 0.00 | 0.00 | 38 | 1021.7 |
| 20260502191331 | 78 | 160 | 1.0 | 2.0 | 0.00 | 0.00 | 0.00 | 40 | 1021.6 |
| 20260502190828 | 76 | 73 | 0.0 | 2.0 | 0.00 | 0.00 | 0.00 | 42 | 1021.8 |
| 20260502190325 | 77 | 333 | 2.0 | 3.0 | 0.00 | 0.00 | 0.00 | 40 | 1021.7 |
| 20260502185820 | 78 | 182 | 1.0 | 3.0 | 0.00 | 0.00 | 0.00 | 40 | 1021.8 |
| 20260502185316 | 78 | 129 | 0.0 | 2.0 | 0.00 | 0.00 | 0.00 | 42 | 1021.8 |
| 20260502184814 | 76 | 39 | 0.0 | 3.0 | 0.00 | 0.00 | 0.00 | 44 | 1022.0 |
| 20260502184309 | 76 | 274 | 4.0 | 4.0 | 0.00 | 0.00 | 0.00 | 43 | 1022.1 |
| 20260502183806 | 75 | 51 | 1.0 | 6.0 | 0.00 | 0.00 | 0.00 | 47 | 1022.1 |
| 20260502183302 | 76 | 136 | 0.0 | 3.0 | 0.00 | 0.00 | 0.00 | 45 | 1022.3 |
| 20260502182757 | 75 | 69 | 1.0 | 2.0 | 0.00 | 0.00 | 0.00 | 43 | 1022.2 |
| 20260502182253 | 75 | 105 | 2.0 | 3.0 | 0.00 | 0.00 | 0.00 | 43 | 1022.3 |
| 20260502181749 | 76 | 87 | 1.0 | 2.0 | 0.00 | 0.00 | 0.00 | 46 | 1022.2 |
| 20260502181249 | 76 | 78 | 2.0 | 4.0 | 0.00 | 0.00 | 0.00 | 44 | 1022.4 |
| 20260502180746 | 75 | 141 | 1.0 | 2.0 | 0.00 | 0.00 | 0.00 | 48 | 1022.5 |
| 20260502180243 | 74 | 209 | 2.0 | 2.0 | 0.00 | 0.00 | 0.00 | 45 | 1022.5 |
| 20260502170208 | 70 | 20 | 0.0 | 3.0 | 0.00 | 0.00 | 0.00 | 52 | 1023.3 |
| 20260502164154 | 69 | 6 | 2.0 | 3.0 | 0.00 | 0.00 | 0.00 | 56 | 1023.4 |
| 20260502163649 | 67 | 25 | 1.0 | 4.0 | 0.00 | 0.00 | 0.00 | 59 | 1023.4 |
| 20260502163147 | 66 | 51 | 0.0 | 2.0 | 0.00 | 0.00 | 0.00 | 65 | 1023.4 |
| 20260502162643 | 65 | 206 | 6.0 | 6.0 | 0.00 | 0.00 | 0.00 | 58 | 1023.4 |
| 20260502162141 | 65 | 209 | 0.0 | 2.0 | 0.00 | 0.00 | 0.00 | 60 | 1023.4 |
| 20260502161638 | 65 | 50 | 0.0 | 2.0 | 0.00 | 0.00 | 0.00 | 59 | 1023.3 |
| 20260502161135 | 64 | 49 | 0.0 | 2.0 | 0.00 | 0.00 | 0.00 | 62 | 1023.5 |
| 20260502160633 | 63 | 29 | 2.0 | 2.0 | 0.00 | 0.00 | 0.00 | 72 | 1023.4 |
| 20260502160131 | 63 | 358 | 0.0 | 2.0 | 0.00 | 0.00 | 0.00 | 63 | 1023.5 |
| 20260502152045 | 60 | 38 | 0.0 | 2.0 | 0.00 | 0.00 | 0.00 | 69 | 1023.3 |
| 20260502151542 | 59 | 194 | 0.0 | 2.0 | 0.00 | 0.00 | 0.00 | 72 | 1023.4 |
| 20260502151040 | 59 | 76 | 0.0 | 2.0 | 0.00 | 0.00 | 0.00 | 78 | 1023.3 |
| 20260502150537 | 59 | 96 | 0.0 | 2.0 | 0.00 | 0.00 | 0.00 | 72 | 1023.4 |
| 20260502130422 | 50 | 68 | 2.0 | 2.0 | 0.00 | 0.00 | 0.00 | 97 | 1022.3 |
| 20260502123405 | 49 | 35 | 0.0 | 2.0 | 0.00 | 0.00 | 0.00 | 97 | 1021.7 |
| 20260502122902 | 49 | 33 | 1.0 | 2.0 | 0.00 | 0.00 | 0.00 | 97 | 1021.5 |
| 20260502122358 | 49 | 45 | 1.0 | 1.0 | 0.00 | 0.00 | 0.00 | 97 | 1021.5 |
| 20260502121856 | 48 | 50 | 1.0 | 2.0 | 0.00 | 0.00 | 0.00 | 97 | 1021.5 |
| 20260502121353 | 48 | 115 | 0.0 | 1.0 | 0.00 | 0.00 | 0.00 | 97 | 1021.5 |
| 20260502120851 | 48 | 39 | 1.0 | 2.0 | 0.00 | 0.00 | 0.00 | 97 | 1021.3 |
| 20260502120346 | 48 | 43 | 0.0 | 2.0 | 0.00 | 0.00 | 0.00 | 97 | 1021.1 |
| 20260502115844 | 48 | 54 | 1.0 | 1.0 | 0.00 | 0.00 | 0.00 | 97 | 1021.1 |
| 20260502115341 | 48 | 55 | 0.0 | 2.0 | 0.00 | 0.00 | 0.00 | 97 | 1021.0 |
| 20260502114837 | 48 | 55 | 1.0 | 2.0 | 0.00 | 0.00 | 0.00 | 97 | 1020.9 |
| 20260502114334 | 48 | 66 | 0.0 | 1.0 | 0.00 | 0.00 | 0.00 | 96 | 1020.7 |
| 20260502113831 | 48 | 112 | 0.0 | 2.0 | 0.00 | 0.00 | 0.00 | 96 | 1020.8 |
| 20260502113329 | 48 | 104 | 0.0 | 2.0 | 0.00 | 0.00 | 0.00 | 96 | 1020.9 |
| 20260502112827 | 49 | 92 | 2.0 | 2.0 | 0.00 | 0.00 | 0.00 | 96 | 1020.8 |
| 20260502112324 | 49 | 94 | 0.0 | 1.0 | 0.00 | 0.00 | 0.00 | 96 | 1020.7 |
| 20260502111821 | 49 | 64 | 1.0 | 2.0 | 0.00 | 0.00 | 0.00 | 96 | 1020.6 |
| 20260502111319 | 49 | 10 | 1.0 | 1.0 | 0.00 | 0.00 | 0.00 | 96 | 1020.7 |
| 20260502110817 | 49 | 51 | 1.0 | 2.0 | 0.00 | 0.00 | 0.00 | 96 | 1020.8 |
| 20260502110314 | 49 | 32 | 0.0 | 1.0 | 0.00 | 0.00 | 0.00 | 96 | 1020.7 |
| 20260502105811 | 49 | 55 | 0.0 | 1.0 | 0.00 | 0.00 | 0.00 | 96 | 1020.5 |
| 20260502105308 | 49 | 44 | 0.0 | 1.0 | 0.00 | 0.00 | 0.00 | 96 | 1020.6 |
| 20260502104806 | 50 | 58 | 0.0 | 1.0 | 0.00 | 0.00 | 0.00 | 96 | 1020.3 |
| 20260502104303 | 50 | 50 | 1.0 | 2.0 | 0.00 | 0.00 | 0.00 | 96 | 1020.5 |
| 20260502103800 | 50 | 81 | 0.0 | 1.0 | 0.00 | 0.00 | 0.00 | 95 | 1020.1 |
| 20260502103257 | 50 | 89 | 0.0 | 2.0 | 0.00 | 0.00 | 0.00 | 96 | 1020.0 |
| 20260502102755 | 50 | 79 | 1.0 | 2.0 | 0.00 | 0.00 | 0.00 | 96 | 1019.9 |
| 20260502102251 | 50 | 64 | 1.0 | 2.0 | 0.00 | 0.00 | 0.00 | 96 | 1020.0 |
| 20260502101749 | 50 | 60 | 0.0 | 1.0 | 0.00 | 0.00 | 0.00 | 96 | 1019.9 |
| 20260502101247 | 50 | 54 | 1.0 | 1.0 | 0.00 | 0.00 | 0.00 | 96 | 1019.7 |
| 20260502100745 | 50 | 60 | 0.0 | 1.0 | 0.00 | 0.00 | 0.00 | 96 | 1019.6 |
| 20260502100243 | 50 | 49 | 2.0 | 2.0 | 0.00 | 0.00 | 0.00 | 96 | 1019.6 |
| 20260502091217 | 50 | 38 | 1.0 | 2.0 | 0.00 | 0.00 | 0.00 | 96 | 1019.0 |
| 20260502090715 | 51 | 62 | 0.0 | 2.0 | 0.00 | 0.00 | 0.00 | 96 | 1019.1 |
| 20260502090211 | 51 | 34 | 0.0 | 2.0 | 0.00 | 0.00 | 0.00 | 95 | 1018.9 |
| 20260502071113 | 52 | 37 | 1.0 | 1.0 | 0.00 | 0.00 | 0.00 | 96 | 1018.8 |
| 20260502070611 | 52 | 36 | 0.0 | 2.0 | 0.00 | 0.00 | 0.00 | 96 | 1018.8 |
| 20260502070109 | 52 | 141 | 0.0 | 2.0 | 0.00 | 0.00 | 0.00 | 96 | 1018.7 |
| 20260502065607 | 52 | 4 | 0.0 | 1.0 | 0.00 | 0.00 | 0.00 | 95 | 1018.6 |
| 20260502065104 | 52 | 36 | 1.0 | 2.0 | 0.00 | 0.00 | 0.00 | 96 | 1018.4 |
| 20260502064603 | 52 | 28 | 0.0 | 1.0 | 0.00 | 0.00 | 0.00 | 96 | 1018.6 |
| 20260502064059 | 52 | 44 | 1.0 | 2.0 | 0.00 | 0.00 | 0.00 | 96 | 1018.6 |
| 20260502063557 | 52 | 55 | 0.0 | 2.0 | 0.00 | 0.00 | 0.00 | 96 | 1018.8 |
| 20260502063055 | 52 | 24 | 2.0 | 2.0 | 0.00 | 0.00 | 0.00 | 96 | 1018.9 |
| 20260502062551 | 52 | 59 | 2.0 | 2.0 | 0.00 | 0.00 | 0.00 | 96 | 1018.8 |
| 20260502062049 | 52 | 23 | 0.0 | 2.0 | 0.00 | 0.00 | 0.00 | 96 | 1019.0 |
| 20260502061547 | 52 | 49 | 0.0 | 1.0 | 0.00 | 0.00 | 0.00 | 96 | 1018.9 |
| 20260502061044 | 52 | 113 | 0.0 | 1.0 | 0.00 | 0.00 | 0.00 | 96 | 1019.1 |
| 20260502060539 | 52 | 55 | 0.0 | 1.0 | 0.00 | 0.00 | 0.00 | 96 | 1019.0 |
| 20260502060036 | 52 | 89 | 0.0 | 2.0 | 0.00 | 0.00 | 0.00 | 96 | 1019.0 |
| 20260502055534 | 52 | 31 | 0.0 | 2.0 | 0.00 | 0.00 | 0.00 | 96 | 1018.9 |
| 20260502055032 | 52 | 31 | 1.0 | 2.0 | 0.00 | 0.00 | 0.00 | 96 | 1019.0 |
| 20260502054531 | 53 | 44 | 1.0 | 2.0 | 0.00 | 0.00 | 0.00 | 96 | 1019.1 |
| 20260502054027 | 53 | 44 | 0.0 | 1.0 | 0.00 | 0.00 | 0.00 | 96 | 1018.8 |
| 20260502053524 | 53 | 46 | 1.0 | 2.0 | 0.00 | 0.00 | 0.00 | 95 | 1018.9 |
| 20260502053022 | 52 | 49 | 0.0 | 2.0 | 0.00 | 0.00 | 0.00 | 96 | 1018.7 |
| 20260502052520 | 53 | 29 | 0.0 | 2.0 | 0.00 | 0.00 | 0.00 | 96 | 1018.7 |
| 20260502052018 | 53 | 32 | 2.0 | 2.0 | 0.00 | 0.00 | 0.00 | 96 | 1018.7 |
| 20260502051516 | 53 | 65 | 1.0 | 2.0 | 0.00 | 0.00 | 0.00 | 96 | 1018.6 |